When you browse on this site, cookies collect data to enhance your experience and personalize the content and advertising you see.
Visit our Privacy Policy to learn more. By continuing to use the site, you agree to this use of cookies and data.
  • Em Portugal
  • Lista de países
  • Para 7 dias
  • Temperatura da água
  • Mapas de satélite
  • Mapa do tempo
  • Widgets de tempo
  • user-avatar
    Iniciar Sessão

    Previsão horária em Ankamaty

    Hoje, 21 Julho, Domingo

    Tempo Temperatura Precipitação Vento Pressão Humidade
    00:00 +19°C° 0 mm 3 m/s 757 mmHg 79%
    01:00 +19°C° 0 mm 3 m/s 757 mmHg 78%
    02:00 +19°C° 0 mm 3 m/s 757 mmHg 78%
    03:00 +18°C° 0 mm 3 m/s 756 mmHg 78%
    04:00 +18°C° 0 mm 3 m/s 756 mmHg 77%
    05:00 +20°C° 0 mm 4 m/s 756 mmHg 76%
    06:00 +21°C° 0 mm 4 m/s 756 mmHg 75%
    07:00 +22°C° 0 mm 4 m/s 756 mmHg 72%
    08:00 +23°C° 0 mm 4 m/s 756 mmHg 71%
    09:00 +23°C° 0 mm 4 m/s 756 mmHg 69%
    10:00 +25°C° 0 mm 4 m/s 757 mmHg 68%
    11:00 +26°C° 0.1 mm 4 m/s 757 mmHg 67%
    12:00 +26°C° 0.1 mm 5 m/s 757 mmHg 66%
    13:00 +26°C° 0.1 mm 5 m/s 757 mmHg 65%
    14:00 +26°C° 0.1 mm 4 m/s 757 mmHg 64%
    15:00 +26°C° 0.1 mm 4 m/s 757 mmHg 63%
    16:00 +27°C° 0.1 mm 3 m/s 757 mmHg 62%
    17:00 +25°C° 0.6 mm 3 m/s 758 mmHg 71%
    18:00 +23°C° 0.6 mm 2 m/s 758 mmHg 80%
    19:00 +20°C° 0.6 mm 2 m/s 758 mmHg 88%
    20:00 +19°C° 0 mm 2 m/s 758 mmHg 90%
    21:00 +18°C° 0 mm 2 m/s 759 mmHg 91%
    22:00 +17°C° 0 mm 2 m/s 759 mmHg 93%
    23:00 +16°C° 0 mm 2 m/s 759 mmHg 93%

    Amanhã, 22 Julho, Segunda-feira

    Tempo Temperatura Precipitação Vento Pressão Humidade
    00:00 +16°C° 0 mm 2 m/s 760 mmHg 94%
    01:00 +14°C° 0 mm 3 m/s 760 mmHg 95%
    02:00 +14°C° 0 mm 3 m/s 760 mmHg 95%
    03:00 +14°C° 0 mm 3 m/s 760 mmHg 96%
    04:00 +14°C° 0 mm 3 m/s 760 mmHg 97%
    05:00 +15°C° 0 mm 4 m/s 760 mmHg 93%
    06:00 +17°C° 0 mm 4 m/s 760 mmHg 90%
    07:00 +17°C° 0 mm 5 m/s 760 mmHg 87%
    08:00 +20°C° 0 mm 5 m/s 761 mmHg 79%
    09:00 +21°C° 0 mm 5 m/s 761 mmHg 71%
    10:00 +22°C° 0 mm 5 m/s 761 mmHg 63%
    11:00 +23°C° 0 mm 5 m/s 761 mmHg 60%
    12:00 +23°C° 0 mm 5 m/s 761 mmHg 56%
    13:00 +25°C° 0 mm 5 m/s 761 mmHg 53%
    14:00 +23°C° 0 mm 5 m/s 761 mmHg 54%
    15:00 +23°C° 0 mm 5 m/s 761 mmHg 56%
    16:00 +23°C° 0 mm 5 m/s 761 mmHg 57%
    17:00 +22°C° 0 mm 4 m/s 761 mmHg 63%
    18:00 +20°C° 0 mm 4 m/s 761 mmHg 69%
    19:00 +19°C° 0 mm 3 m/s 761 mmHg 75%
    20:00 +18°C° 0 mm 3 m/s 761 mmHg 79%
    21:00 +17°C° 0 mm 3 m/s 761 mmHg 82%
    22:00 +14°C° 0 mm 3 m/s 761 mmHg 86%
    23:00 +15°C° 0 mm 2 m/s 761 mmHg 86%

    Depois de amanhã, 23 Julho, Terça-feira

    Tempo Temperatura Precipitação Vento Pressão Humidade
    00:00 +15°C° 0 mm 2 m/s 761 mmHg 85%
    01:00 +15°C° 0 mm 2 m/s 761 mmHg 85%
    02:00 +15°C° 0 mm 2 m/s 761 mmHg 86%
    03:00 +15°C° 0 mm 2 m/s 761 mmHg 87%
    04:00 +16°C° 0 mm 2 m/s 761 mmHg 88%
    05:00 +16°C° 0 mm 2 m/s 761 mmHg 89%
    06:00 +16°C° 0 mm 2 m/s 761 mmHg 89%
    07:00 +17°C° 0 mm 2 m/s 761 mmHg 90%
    08:00 +17°C° 0 mm 3 m/s 761 mmHg 88%
    09:00 +17°C° 0 mm 3 m/s 761 mmHg 86%
    10:00 +18°C° 0 mm 3 m/s 761 mmHg 84%
    11:00 +18°C° 0 mm 3 m/s 761 mmHg 84%
    12:00 +19°C° 0 mm 3 m/s 761 mmHg 84%
    13:00 +19°C° 0 mm 3 m/s 761 mmHg 84%
    14:00 +20°C° 0 mm 3 m/s 761 mmHg 84%
    15:00 +20°C° 0 mm 2 m/s 760 mmHg 84%
    16:00 +21°C° 0 mm 2 m/s 760 mmHg 83%
    17:00 +22°C° 0.1 mm 1 m/s 760 mmHg 85%
    18:00 +22°C° 0.1 mm 1 m/s 760 mmHg 87%
    19:00 +21°C° 0.1 mm 1 m/s 760 mmHg 89%
    20:00 +20°C° 0 mm 1 m/s 760 mmHg 91%
    21:00 +19°C° 0 mm 1 m/s 760 mmHg 92%
    22:00 +16°C° 0 mm 0 m/s 760 mmHg 94%
    23:00 +18°C° 0 mm 1 m/s 760 mmHg 95%

    24 Julho, Quarta-feira

    Tempo Temperatura Precipitação Vento Pressão Humidade
    00:00 +18°C° 0 mm 1 m/s 760 mmHg 95%
    01:00 +17°C° 0 mm 2 m/s 760 mmHg 95%
    02:00 +17°C° 0 mm 2 m/s 759 mmHg 96%
    03:00 +17°C° 0 mm 2 m/s 759 mmHg 96%
    04:00 +17°C° 0 mm 2 m/s 759 mmHg 96%
    05:00 +19°C° 0 mm 2 m/s 759 mmHg 93%
    06:00 +20°C° 0 mm 2 m/s 759 mmHg 89%
    07:00 +21°C° 0 mm 2 m/s 759 mmHg 86%
    08:00 +24°C° 0.2 mm 2 m/s 760 mmHg 81%
    09:00 +25°C° 0.2 mm 2 m/s 760 mmHg 76%
    10:00 +26°C° 0.2 mm 2 m/s 760 mmHg 72%
    11:00 +27°C° 0.1 mm 2 m/s 760 mmHg 68%
    12:00 +28°C° 0.1 mm 3 m/s 760 mmHg 64%
    13:00 +28°C° 0.1 mm 3 m/s 760 mmHg 60%
    14:00 +28°C° 0 mm 3 m/s 760 mmHg 61%
    15:00 +28°C° 0 mm 3 m/s 760 mmHg 62%
    16:00 +27°C° 0 mm 4 m/s 760 mmHg 63%
    17:00 +26°C° 0 mm 3 m/s 760 mmHg 70%
    18:00 +24°C° 0 mm 3 m/s 760 mmHg 77%
    19:00 +23°C° 0 mm 2 m/s 760 mmHg 84%
    20:00 +20°C° 0 mm 2 m/s 760 mmHg 87%
    21:00 +19°C° 0 mm 2 m/s 760 mmHg 90%
    22:00 +19°C° 0 mm 1 m/s 761 mmHg 93%
    23:00 +19°C° 0 mm 1 m/s 761 mmHg 93%

    25 Julho, Quinta-feira

    Tempo Temperatura Precipitação Vento Pressão Humidade
    00:00 +19°C° 0 mm 1 m/s 761 mmHg 94%
    01:00 +18°C° 0 mm 1 m/s 761 mmHg 94%
    02:00 +18°C° 0 mm 1 m/s 761 mmHg 94%
    03:00 +18°C° 0 mm 1 m/s 761 mmHg 94%
    04:00 +18°C° 0 mm 1 m/s 761 mmHg 94%
    05:00 +19°C° 0 mm 1 m/s 761 mmHg 89%
    06:00 +21°C° 0 mm 1 m/s 761 mmHg 84%
    07:00 +22°C° 0 mm 1 m/s 762 mmHg 80%
    08:00 +24°C° 0 mm 1 m/s 762 mmHg 74%
    09:00 +25°C° 0 mm 2 m/s 762 mmHg 68%
    10:00 +27°C° 0 mm 2 m/s 762 mmHg 63%
    11:00 +27°C° 0 mm 2 m/s 762 mmHg 60%
    12:00 +28°C° 0 mm 2 m/s 761 mmHg 58%
    13:00 +29°C° 0 mm 2 m/s 761 mmHg 55%
    14:00 +29°C° 0 mm 2 m/s 761 mmHg 58%
    15:00 +28°C° 0 mm 3 m/s 761 mmHg 60%
    16:00 +28°C° 0 mm 3 m/s 761 mmHg 62%
    17:00 +27°C° 0 mm 3 m/s 761 mmHg 69%
    18:00 +25°C° 0 mm 3 m/s 760 mmHg 76%
    19:00 +24°C° 0 mm 3 m/s 760 mmHg 83%
    20:00 +22°C° 0 mm 3 m/s 761 mmHg 87%
    21:00 +21°C° 0 mm 3 m/s 761 mmHg 90%
    22:00 +20°C° 0 mm 3 m/s 761 mmHg 94%
    23:00 +20°C° 0 mm 2 m/s 761 mmHg 94%

    26 Julho, Sexta-feira

    Tempo Temperatura Precipitação Vento Pressão Humidade
    00:00 +20°C° 0 mm 2 m/s 761 mmHg 93%
    01:00 +19°C° 0 mm 2 m/s 761 mmHg 93%
    02:00 +19°C° 0 mm 2 m/s 761 mmHg 93%
    03:00 +19°C° 0 mm 2 m/s 761 mmHg 93%
    04:00 +19°C° 0 mm 2 m/s 761 mmHg 94%
    05:00 +20°C° 0 mm 2 m/s 761 mmHg 88%
    06:00 +22°C° 0 mm 3 m/s 761 mmHg 82%
    07:00 +24°C° 0 mm 3 m/s 761 mmHg 76%
    08:00 +26°C° 0 mm 3 m/s 761 mmHg 70%
    09:00 +28°C° 0 mm 3 m/s 761 mmHg 64%
    10:00 +29°C° 0 mm 3 m/s 761 mmHg 57%
    11:00 +30°C° 0 mm 3 m/s 760 mmHg 55%
    12:00 +30°C° 0 mm 3 m/s 760 mmHg 53%
    13:00 +31°C° 0 mm 3 m/s 760 mmHg 51%
    14:00 +31°C° 0 mm 3 m/s 760 mmHg 52%
    15:00 +30°C° 0 mm 3 m/s 759 mmHg 53%
    16:00 +30°C° 0 mm 3 m/s 759 mmHg 54%
    17:00 +29°C° 0 mm 3 m/s 759 mmHg 60%
    18:00 +28°C° 0 mm 3 m/s 759 mmHg 67%
    19:00 +26°C° 0 mm 3 m/s 759 mmHg 73%
    20:00 +25°C° 0 mm 3 m/s 759 mmHg 76%
    21:00 +24°C° 0 mm 3 m/s 759 mmHg 79%
    22:00 +21°C° 0 mm 3 m/s 760 mmHg 81%
    23:00 +21°C° 0 mm 3 m/s 760 mmHg 82%
    Mostrar mais